#timestamp,LO_Frequency,Hit,StdDev 
1668034815.8,286047005.1,N
1668034835.7,286047007.5,N
1668034855.5,286047005.3,N
1668034875.3,286047003.6,N
1668034895.2,286047002.5,N
1668034915.0,286047002.7,N
1668034915.9,286047002.7,N
1668034935.8,286047001.0,N
1668034955.6,286047000.3,N
1668034975.4,286047000.2,N
1668034995.3,286047000.9,N
1668035015.1,286046996.9,N
1668035035.8,286046997.0,N
1668035055.7,286046996.7,N
1668035075.5,286046999.6,N
1668035095.4,286046999.5,N
1668035115.2,286046998.4,N
1668035135.0,286046998.2,N
1668035135.9,286046998.2,N
1668035155.8,286046996.5,N
1668035175.6,286046997.8,N
1668035195.4,286046996.1,N
1668035215.3,286046993.3,N
1668035235.1,286046993.4,N
1668035255.9,286046994.3,N
1668035275.7,286046991.8,N
1668035295.5,286046992.7,N
1668035315.4,286046990.3,N
1668035335.2,286046991.4,N
1668035355.0,286046990.3,N
1668035355.9,286046990.3,N
1668035375.8,286046992.9,N
1668035395.6,286046993.7,N
1668035415.5,286046998.1,N
1668035435.3,286047002.1,N
1668035455.2,286047000.7,N
1668035475.9,286047002.0,N
1668035495.7,286047005.8,N
1668035515.6,286047005.7,N
1668035535.4,286047012.8,Y
1668035555.3,286047013.2,P
1668035575.1,286047010.3,N
1668035576.0,286047010.3,N
1668035595.8,286047005.5,N
1668035615.7,286047005.7,N
1668035635.5,286047005.1,N
1668035655.3,286047004.5,N
1668035675.2,286047005.0,N
1668035695.0,286046998.8,N
1668035695.9,286046998.8,N
1668035715.8,286046996.8,N
1668035735.6,286047002.8,N
1668035755.4,286047001.4,N
1668035775.3,286046997.9,N
1668035795.1,286046994.0,N
1668035815.9,286046993.7,N
1668035835.7,286047002.4,N
1668035855.5,286047001.8,N
1668035875.4,286047003.9,N
1668035895.2,286047004.0,N
1668035915.0,286047003.4,N
1668035915.9,286047011.9,N
1668035935.8,286047003.4,N
1668035955.6,286047009.7,N
1668035975.5,286047015.5,N
1668035995.3,286047011.6,N
1668036015.1,286047006.5,N
1668036035.9,286047006.6,N
1668036055.7,286047007.2,N
1668036075.6,286047004.8,N
1668036095.4,286047004.8,N
1668036115.2,286047000.0,N
1668036135.1,286047000.2,N
1668036136.0,286047000.2,N
1668036155.8,286047000.9,N
1668036175.6,286046998.7,N
1668036195.5,286047002.2,N
1668036215.3,286047004.7,N
1668036235.2,286047006.9,N
1668036255.9,286047006.4,N
1668036275.7,286047004.8,N
1668036295.6,286047002.1,N
1668036315.4,286047002.4,N
1668036335.2,286047000.7,N
1668036355.1,286047001.1,N
1668036356.0,286047001.1,N
1668036375.8,286047002.3,N
1668036395.7,286046998.4,N
1668036415.5,286046997.2,N
1668036435.3,286046996.8,N
1668036455.2,286046998.8,N
1668036475.0,286047002.8,N
1668036475.9,286047002.8,N
1668036495.7,286047002.3,N
1668036515.6,286047003.6,N
1668036535.4,286047007.3,N
1668036555.3,286047008.9,N
1668036575.1,286047003.8,N
1668036576.0,286047003.8,N
1668036595.8,286047003.7,N
1668036615.7,286046997.5,N
1668036635.5,286046996.4,N
1668036655.3,286046999.3,N
1668036675.2,286047000.5,N
1668036695.0,286046999.3,N
1668036695.9,286046999.3,N
1668036715.8,286046999.4,N
1668036735.6,286047001.8,N
1668036755.4,286047005.0,N
1668036775.3,286047007.2,N
1668036795.1,286047000.0,N
1668036815.8,286047000.8,N
1668036835.7,286046996.7,N
1668036855.5,286046996.3,N
1668036875.4,286046990.4,N
1668036895.2,286046996.3,N
1668036915.0,286046992.4,N
1668036915.9,286046992.4,N
1668036935.8,286046994.4,N
1668036955.6,286046994.7,N
1668036975.4,286046995.8,N
1668036995.3,286046995.9,N
1668037015.1,286046994.7,N
1668037035.9,286046995.5,N
1668037055.7,286046995.5,N
1668037075.5,286046997.4,N
1668037095.4,286047002.7,N
1668037115.2,286046999.2,N
1668037135.0,286046997.9,N
1668037135.9,286046997.9,N
1668037155.8,286046997.9,N
1668037175.6,286046990.6,N
1668037195.5,286046993.9,N
1668037215.3,286046991.5,N
1668037235.1,286046989.4,N
1668037255.9,286046992.6,N
1668037275.7,286046993.5,N
1668037295.5,286046997.8,N
1668037315.4,286046996.1,N
1668037335.2,286046997.3,N
1668037355.0,286046996.6,N
1668037356.0,286046996.6,N
1668037375.8,286046992.8,N
1668037395.6,286046990.4,Y
1668037415.5,286046995.7,P
1668037435.3,286046993.6,P
1668037455.1,286046991.5,P
1668037475.9,286046990.3,Y
1668037495.7,286047002.5,P
1668037515.6,286047002.3,N
1668037535.4,286046994.9,N
1668037555.2,286046994.8,N
1668037605.1,286046997.9,E
1668037615.0,286046999.9,N
1668037615.9,286046999.9,P
1668037635.8,286047004.2,P
1668037655.6,286047002.4,N
1668037675.4,286046999.9,N
1668037695.3,286047002.1,N
1668037715.1,286047005.0,Y
1668037735.8,286047004.5,P
1668037755.7,286047003.6,N
1668037775.5,286046998.1,N
1668037795.4,286046996.6,N
1668037815.2,286046996.6,N
1668037835.0,286046997.9,N
1668037835.9,286046997.9,N
1668037855.8,286046997.4,N
1668037875.6,286046996.0,N
1668037895.4,286046995.2,N
1668037915.3,286046997.4,N
1668037935.1,286047000.6,N
1668037955.9,286047002.6,N
1668037975.7,286046999.0,N
1668037995.5,286047001.1,N
1668038015.4,286046999.3,N
1668038035.2,286046998.6,N
1668038055.0,286047002.7,N
1668038055.9,286047002.7,N
1668038075.8,286047000.5,N
1668038095.6,286047002.6,N
1668038115.5,286046996.5,N
1668038135.3,286046996.6,N
1668038155.1,286046998.3,N
1668038175.9,286047001.1,N
1668038195.7,286047001.6,N
1668038215.5,286047003.3,N
1668038235.4,286046998.4,N
1668038255.2,286046993.4,N
1668038275.0,286046992.0,N
1668038276.0,286046992.0,N
1668038295.8,286046990.5,Y
1668038315.6,286046993.7,P
1668038335.5,286046995.9,N
1668038355.3,286046993.9,P
1668038375.1,286046996.2,N
1668038395.9,286046994.9,N
